TimeEDT,TemperatureF,Dew PointF,Humidity,Sea Level PressureIn,VisibilityMPH,Wind Direction,Wind SpeedMPH,Gust SpeedMPH,PrecipitationIn,Events,Conditions,WindDirDegrees,DateUTC
12:53 AM,64.0,57.9,80,30.05,6.0,WSW,3.5,-,N/A,,Haze,240,2013-10-03 04:53:00
1:53 AM,59.0,55.9,90,30.06,5.0,Calm,Calm,-,N/A,,Clear,0,2013-10-03 05:53:00
2:53 AM,60.1,57.0,90,30.06,5.0,Calm,Calm,-,N/A,,Clear,0,2013-10-03 06:53:00
3:53 AM,57.9,55.9,93,30.08,4.0,Calm,Calm,-,N/A,,Clear,0,2013-10-03 07:53:00
4:39 AM,57.2,55.4,94,30.08,2.5,ESE,3.5,-,N/A,,Clear,120,2013-10-03 08:39:00
4:53 AM,57.0,55.0,93,30.08,2.5,Calm,Calm,-,N/A,,Clear,0,2013-10-03 08:53:00
5:15 AM,57.2,55.4,94,30.08,1.5,Calm,Calm,-,N/A,,Clear,0,2013-10-03 09:15:00
5:33 AM,57.2,55.4,94,30.09,2.0,Calm,Calm,-,N/A,,Clear,0,2013-10-03 09:33:00
5:43 AM,57.2,55.4,94,30.10,1.5,Calm,Calm,-,N/A,,Clear,0,2013-10-03 09:43:00
5:53 AM,57.0,55.9,96,30.09,1.8,Calm,Calm,-,N/A,,Clear,0,2013-10-03 09:53:00
6:32 AM,55.4,53.6,94,30.11,2.0,Calm,Calm,-,N/A,,Clear,0,2013-10-03 10:32:00
6:40 AM,55.4,53.6,94,30.11,1.5,Calm,Calm,-,N/A,,Clear,0,2013-10-03 10:40:00
6:53 AM,57.0,55.0,93,30.11,0.5,Calm,Calm,-,N/A,Fog,Fog,0,2013-10-03 10:53:00
7:08 AM,57.2,57.2,100,30.12,1.5,Calm,Calm,-,N/A,,Clear,0,2013-10-03 11:08:00
7:53 AM,57.9,55.9,93,30.12,1.8,Calm,Calm,-,N/A,,Clear,0,2013-10-03 11:53:00
8:03 AM,59.0,57.2,94,30.13,2.5,Calm,Calm,-,N/A,,Clear,0,2013-10-03 12:03:00
8:53 AM,63.0,59.0,87,30.14,2.5,Calm,Calm,-,N/A,,Clear,0,2013-10-03 12:53:00
9:36 AM,68.0,60.8,78,30.14,3.0,Calm,Calm,-,N/A,,Haze,0,2013-10-03 13:36:00
9:53 AM,68.0,61.0,78,30.13,4.0,Calm,Calm,-,N/A,,Haze,0,2013-10-03 13:53:00
10:53 AM,73.9,57.0,55,30.13,9.0,Calm,Calm,-,N/A,,Clear,0,2013-10-03 14:53:00
11:53 AM,77.0,55.0,47,30.12,10.0,South,5.8,-,N/A,,Clear,190,2013-10-03 15:53:00
12:53 PM,78.1,57.9,50,30.10,10.0,SSW,5.8,-,N/A,,Clear,200,2013-10-03 16:53:00
1:53 PM,78.1,59.0,52,30.08,10.0,SSW,6.9,-,N/A,,Clear,210,2013-10-03 17:53:00
2:53 PM,79.0,60.1,52,30.06,10.0,WSW,3.5,-,N/A,,Clear,240,2013-10-03 18:53:00
3:53 PM,80.1,59.0,48,30.05,10.0,Calm,Calm,-,N/A,,Clear,0,2013-10-03 19:53:00
4:53 PM,79.0,60.1,52,30.04,10.0,Calm,Calm,-,N/A,,Scattered Clouds,0,2013-10-03 20:53:00
5:53 PM,78.1,62.1,58,30.04,10.0,SSW,5.8,-,N/A,,Partly Cloudy,200,2013-10-03 21:53:00
6:53 PM,75.9,62.1,62,30.05,10.0,South,4.6,-,N/A,,Clear,180,2013-10-03 22:53:00
7:53 PM,73.9,63.0,68,30.05,10.0,South,5.8,-,N/A,,Clear,170,2013-10-03 23:53:00
8:53 PM,73.0,63.0,71,30.06,9.0,SSE,3.5,-,N/A,,Clear,160,2013-10-04 00:53:00
9:53 PM,70.0,63.0,78,30.07,6.0,Calm,Calm,-,N/A,,Haze,0,2013-10-04 01:53:00
10:53 PM,68.0,63.0,84,30.08,5.0,East,3.5,-,N/A,,Haze,80,2013-10-04 02:53:00